Location: Chantarel
(45.1638°N, 1.7873°E)
Time: 14:55:16
(UTC+00:00)

CSL-04 Debris - Pass Details

Date: 03 March 2021
Orbit: 826 x 848 km, 98.9° (Epoch: 15 April)

Event Time Altitude Azimuth Distance (km) Brightness Sun altitude
Rises 18:23:04 0° 148° (SSE) 3,372 7.0 -7.9°
Reaches altitude 10° 18:25:27 10° 143° (SE) 2,445 6.3 -8.3°
Maximum altitude 18:30:41 51° 69° (ENE) 1,055 4.4 -9.2°
Drops below altitude 10° 18:35:58 10° 355° (N) 2,475 6.7 -10.1°
Sets 18:38:23 0° 351° (N) 3,417 7.5 -10.6°
